Weather History for KMAO - April, 2014

Change the Weather History Date:

Saturday, April 12, 2014

  Actual Average (KFLO) Record (KFLO)
Temperature  
Mean Temperature 66 °F 62 °F  
Max Temperature 80 °F 75 °F 90 °F (1981)
Min Temperature 53 °F 50 °F 32 °F (1989)
Degree Days  
Heating Degree Days 0 5  
Month to date heating degree days 67  
Since 1 July heating degree days 2443  
Cooling Degree Days 2 2  
Month to date cooling degree days 21  
Year to date cooling degree days 45  
Growing Degree Days 16 (Base 50)    
Moisture  
Dew Point 50 °F    
Average Humidity 58    
Maximum Humidity 94    
Minimum Humidity 30    
Precipitation  
Precipitation 0.00 in 0.09 in 1.66 in (1988)
Month to date precipitation 1.06  
Year to date precipitation 10.54  
Sea Level Pressure  
Sea Level Pressure 30.19 in    
Wind  
Wind Speed 5 mph (South)    
Max Wind Speed 14 mph    
Max Gust Speed 17 mph    
Visibility 10 miles    
Events      
T = Trace of Precipitation, MM = Missing Value Source: NWS Daily Summary

Daily Weather History Graph

Daily Weather History Graph

Search for Another Location

Airport or City:

Trip Planner

Search our weather history database for the weather conditions in past years. The results will help you decide how hot, cold, wet, or windy it might be!

Date:

Astronomy

Apr. 12, 2014 Rise Set
Actual Time 6:50 AM EDT 7:46 PM EDT
Civil Twilight 6:24 AM EDT 8:12 PM EDT
Nautical Twilight 5:54 AM EDT 8:42 PM EDT
Astronomical Twilight 5:22 AM EDT 9:14 PM EDT
Moon 5:29 PM EDT (4/12) 5:08 AM EDT (4/12)
Length of Visible Light 13h 47m
Length of Day
12h 56m
Waxing Gibbous, 93% of the Moon is Illuminated
Apr 12
Waxing Gibbous
Apr 15
Full
Apr 22
Last Quarter
Apr 29
New
May 6
First Quarter

Hourly Weather History & Observations

Time (EDT) Temp. Dew Point Humidity Pressure Visibility Wind Dir Wind Speed Gust Speed Precip Events Conditions
12:15 AM 60.8 °F 48.2 °F 63% 30.19 in 10.0 mi SSE 3.5 mph - N/A   Clear
12:35 AM 59.0 °F 48.2 °F 67% 30.19 in 10.0 mi SSE 4.6 mph - N/A   Clear
12:55 AM 59.0 °F 50.0 °F 72% 30.19 in 10.0 mi South 4.6 mph - N/A   Clear
1:15 AM 59.0 °F 50.0 °F 72% 30.19 in 10.0 mi South 4.6 mph - N/A   Clear
1:35 AM 59.0 °F 50.0 °F 72% 30.19 in 10.0 mi South 3.5 mph - N/A   Clear
1:55 AM 57.2 °F 50.0 °F 77% 30.19 in 10.0 mi South 4.6 mph - N/A   Clear
2:15 AM 59.0 °F 50.0 °F 72% 30.19 in 10.0 mi South 6.9 mph - N/A   Clear
2:35 AM 55.4 °F 48.2 °F 77% 30.19 in 10.0 mi South 4.6 mph - N/A   Clear
2:55 AM 57.2 °F 50.0 °F 77% 30.18 in 10.0 mi South 4.6 mph - N/A   Scattered Clouds
3:15 AM 55.4 °F 50.0 °F 82% 30.18 in 10.0 mi South 5.8 mph - N/A   Scattered Clouds
3:35 AM 55.4 °F 50.0 °F 82% 30.18 in 10.0 mi South 5.8 mph - N/A   Clear
3:55 AM 55.4 °F 50.0 °F 82% 30.17 in 10.0 mi South 6.9 mph - N/A   Clear
4:15 AM 55.4 °F 50.0 °F 82% 30.17 in 10.0 mi South 4.6 mph - N/A   Clear
4:35 AM 55.4 °F 50.0 °F 82% 30.17 in 10.0 mi South 4.6 mph - N/A   Clear
4:55 AM 55.4 °F 50.0 °F 82% 30.17 in 10.0 mi South 4.6 mph - N/A   Clear
5:15 AM 55.4 °F 50.0 °F 82% 30.17 in 10.0 mi South 4.6 mph - N/A   Clear
5:35 AM 55.4 °F 50.0 °F 82% 30.17 in 10.0 mi South 3.5 mph - N/A   Clear
5:55 AM 55.4 °F 50.0 °F 82% 30.18 in 10.0 mi South 3.5 mph - N/A   Clear
6:15 AM 53.6 °F 50.0 °F 88% 30.18 in 10.0 mi South 4.6 mph - N/A   Clear
6:35 AM 53.6 °F 50.0 °F 88% 30.19 in 10.0 mi South 3.5 mph - N/A   Clear
6:55 AM 53.6 °F 51.8 °F 94% 30.20 in 10.0 mi South 3.5 mph - N/A   Clear
7:15 AM 53.6 °F 50.0 °F 88% 30.20 in 10.0 mi Calm Calm - N/A   Clear
7:35 AM 53.6 °F 51.8 °F 94% 30.21 in 10.0 mi South 4.6 mph - N/A   Clear
7:55 AM 57.2 °F 51.8 °F 82% 30.21 in 10.0 mi South 4.6 mph - N/A   Clear
8:15 AM 59.0 °F 53.6 °F 82% 30.21 in 10.0 mi South 4.6 mph - N/A   Clear
8:35 AM 60.8 °F 53.6 °F 77% 30.22 in 10.0 mi SSW 4.6 mph - N/A   Clear
8:55 AM 62.6 °F 53.6 °F 72% 30.22 in 10.0 mi SW 4.6 mph - N/A   Clear
9:15 AM 64.4 °F 53.6 °F 68% 30.23 in 10.0 mi SW 6.9 mph - N/A   Clear
9:35 AM 68.0 °F 53.6 °F 60% 30.23 in 10.0 mi SW 4.6 mph - N/A   Clear
9:55 AM 69.8 °F 53.6 °F 56% 30.23 in 10.0 mi WSW 4.6 mph - N/A   Clear
10:15 AM 71.6 °F 53.6 °F 53% 30.23 in 10.0 mi SW 5.8 mph - N/A   Clear
10:35 AM 71.6 °F 51.8 °F 50% 30.23 in 10.0 mi WSW 6.9 mph - N/A   Clear
10:55 AM 73.4 °F 51.8 °F 47% 30.24 in 10.0 mi SW 5.8 mph - N/A   Clear
11:15 AM 73.4 °F 51.8 °F 47% 30.24 in 10.0 mi Calm Calm - N/A   Clear
11:35 AM 75.2 °F 51.8 °F 44% 30.23 in 10.0 mi WSW 3.5 mph - N/A   Clear
11:55 AM 77.0 °F 50.0 °F 39% 30.23 in 10.0 mi West 6.9 mph - N/A   Clear
12:15 PM 77.0 °F 46.4 °F 34% 30.23 in 10.0 mi West 4.6 mph - N/A   Clear
12:35 PM 77.0 °F 46.4 °F 34% 30.22 in 10.0 mi South 8.1 mph - N/A   Clear
12:55 PM 77.0 °F 46.4 °F 34% 30.21 in 10.0 mi SE 3.5 mph - N/A   Scattered Clouds
1:15 PM 78.8 °F 46.4 °F 32% 30.20 in 10.0 mi Calm Calm - N/A   Clear
1:35 PM 78.8 °F 46.4 °F 32% 30.20 in 10.0 mi SSW 8.1 mph - N/A   Mostly Cloudy
1:55 PM 78.8 °F 46.4 °F 32% 30.19 in 10.0 mi SSE 6.9 mph - N/A   Scattered Clouds
2:15 PM 78.8 °F 46.4 °F 32% 30.19 in 10.0 mi WNW 5.8 mph - N/A   Scattered Clouds
2:35 PM 80.6 °F 46.4 °F 30% 30.18 in 10.0 mi SW 6.9 mph - N/A   Scattered Clouds
2:55 PM 78.8 °F 46.4 °F 32% 30.18 in 10.0 mi SW 4.6 mph - N/A   Scattered Clouds
3:15 PM 80.6 °F 46.4 °F 30% 30.16 in 10.0 mi South 11.5 mph - N/A   Scattered Clouds
3:35 PM 80.6 °F 46.4 °F 30% 30.16 in 10.0 mi SW 10.4 mph - N/A   Clear
3:55 PM 80.6 °F 46.4 °F 30% 30.15 in 10.0 mi SSW 6.9 mph 16.1 mph N/A   Scattered Clouds
4:15 PM 80.6 °F 46.4 °F 30% 30.15 in 10.0 mi South 5.8 mph - N/A   Scattered Clouds
4:35 PM 80.6 °F 46.4 °F 30% 30.14 in 10.0 mi SSW 8.1 mph - N/A   Scattered Clouds
4:55 PM 78.8 °F 46.4 °F 32% 30.14 in 10.0 mi SW 4.6 mph - N/A   Mostly Cloudy
5:15 PM 78.8 °F 46.4 °F 32% 30.13 in 10.0 mi South 5.8 mph - N/A   Scattered Clouds
5:35 PM 80.6 °F 48.2 °F 32% 30.13 in 10.0 mi SSE 4.6 mph - N/A   Scattered Clouds
5:55 PM 77.0 °F 46.4 °F 34% 30.13 in 10.0 mi South 8.1 mph - N/A   Scattered Clouds
6:15 PM 77.0 °F 51.8 °F 41% 30.13 in 10.0 mi SSE 13.8 mph - N/A   Scattered Clouds
6:35 PM 77.0 °F 51.8 °F 41% 30.14 in 10.0 mi SSE 9.2 mph 16.1 mph N/A   Scattered Clouds
6:55 PM 73.4 °F 51.8 °F 47% 30.14 in 10.0 mi SSE 10.4 mph 17.3 mph N/A   Clear
7:15 PM 73.4 °F 50.0 °F 44% 30.15 in 10.0 mi SSE 10.4 mph - N/A   Clear
7:35 PM 71.6 °F 50.0 °F 46% 30.15 in 10.0 mi SSE 10.4 mph 17.3 mph N/A   Clear
7:55 PM 71.6 °F 50.0 °F 46% 30.15 in 10.0 mi SSE 8.1 mph - N/A   Clear
8:15 PM 69.8 °F 50.0 °F 49% 30.16 in 10.0 mi SSE 6.9 mph - N/A   Clear
8:35 PM 69.8 °F 50.0 °F 49% 30.16 in 10.0 mi SSE 5.8 mph - N/A   Clear
8:55 PM 68.0 °F 50.0 °F 52% 30.17 in 10.0 mi SSE 4.6 mph - N/A   Clear
9:15 PM 68.0 °F 50.0 °F 52% 30.18 in 10.0 mi SSE 5.8 mph - N/A   Clear
9:35 PM 66.2 °F 51.8 °F 60% 30.19 in 10.0 mi SSE 4.6 mph - N/A   Clear
9:55 PM 64.4 °F 51.8 °F 64% 30.20 in 10.0 mi SE 3.5 mph - N/A   Clear
10:15 PM 64.4 °F 51.8 °F 64% 30.20 in 10.0 mi SSE 4.6 mph - N/A   Clear
10:35 PM 62.6 °F 51.8 °F 68% 30.20 in 10.0 mi SSE 4.6 mph - N/A   Clear
10:55 PM 62.6 °F 53.6 °F 72% 30.20 in 10.0 mi SSE 5.8 mph - N/A   Clear
11:15 PM 62.6 °F 53.6 °F 72% 30.20 in 10.0 mi SSE 5.8 mph - N/A   Clear
11:35 PM 62.6 °F 53.6 °F 72% 30.20 in 10.0 mi SSE 4.6 mph - N/A   Clear
11:55 PM 62.6 °F 53.6 °F 72% 30.21 in 10.0 mi SSE 5.8 mph - N/A   Clear